DW8838 Weather Reports


time (UTC)temp
F
wind
direction
speed
knots
gust
knots
rain 1hr
in
rain 24hr
in
rain mn
in
humidity
%
barometer
mb
20260506050517 40 68 1.7 3.5 0.00 0.00 0.00 86
20260506044517 40 315 1.7 3.5 0.00 0.00 0.00 87
20260506043517 40 23 0.9 2.6 0.00 0.00 0.00 86
20260506042517 41 45 0.9 2.6 0.00 0.00 0.00 86
20260506041517 41 45 1.7 3.5 0.00 0.00 0.00 86
20260506040517 41 68 1.7 5.2 0.00 0.00 0.00 85
20260506035537 42 45 1.7 2.6 0.00 0.00 0.00 85
20260506034517 42 68 2.6 4.3 0.00 0.00 0.00 85
20260506033537 42 45 1.7 4.3 0.00 0.00 0.00 85
20260506032517 42 0.0 1.7 0.00 0.00 0.00 85
20260506031516 42 68 1.7 7.0 0.00 0.00 0.00 85
20260506030557 43 0.0 2.6 0.00 0.00 0.00 85
20260506025516 43 45 0.9 1.7 0.00 0.00 0.00 86
20260506024536 43 68 2.6 6.1 0.00 0.00 0.00 86
20260506023516 43 68 0.9 2.6 0.00 0.00 0.00 86
20260506022537 43 45 2.6 5.2 0.00 0.00 0.00 86
20260506021516 43 68 2.6 5.2 0.00 0.00 0.00 86
20260506020537 43 68 2.6 4.3 0.00 0.00 0.00 86
20260506015516 43 45 5.2 7.0 0.00 0.00 0.00 86
20260506014516 43 45 5.2 9.6 0.00 0.00 0.00 86
20260506013516 43 45 3.5 6.1 0.00 0.00 0.00 86
20260506012516 43 68 5.2 9.6 0.00 0.00 0.00 86
20260506011536 43 68 3.5 4.3 0.00 0.00 0.00 85
20260506010516 43 68 1.7 2.6 0.00 0.00 0.00 85
20260506005516 43 45 1.7 4.3 0.00 0.00 0.00 85
20260506004516 44 68 1.7 3.5 0.00 0.00 0.00 85
20260506003516 44 45 1.7 4.3 0.00 0.00 0.00 84
20260506002516 44 45 1.7 3.5 0.00 0.00 0.00 84
20260506001537 44 68 3.5 6.1 0.00 0.00 0.00 83
20260506000516 44 45 1.7 3.5 0.00 0.00 0.00 83
20260505235516 44 45 2.6 4.3 0.00 0.00 0.00 83
20260505234516 44 45 1.7 3.5 0.00 0.00 0.00 82
20260505233516 44 68 1.7 3.5 0.00 0.00 0.00 82
20260505232516 45 45 2.6 5.2 0.00 0.00 0.00 82
20260505231516 45 45 1.7 5.2 0.00 0.00 0.00 81
20260505230516 45 45 1.7 5.2 0.00 0.00 0.00 80
20260505225516 45 68 2.6 5.2 0.00 0.00 0.00 80
20260505224536 45 68 1.7 3.5 0.00 0.00 0.00 79
20260505223516 45 45 5.2 9.6 0.00 0.00 0.00 79
20260505222516 45 68 3.5 7.8 0.00 0.00 0.00 79
20260505221536 46 68 6.1 11.3 0.00 0.00 0.00 79
20260505220536 46 45 3.5 6.1 0.00 0.00 0.00 80
20260505215516 46 68 4.3 7.8 0.00 0.00 0.00 80
20260505214516 46 68 4.3 8.7 0.00 0.00 0.00 79
20260505213516 46 45 1.7 4.3 0.00 0.00 0.00 79
20260505212536 47 68 1.7 4.3 0.00 0.00 0.00 80
20260505211516 47 68 3.5 7.0 0.00 0.00 0.00 82
20260505210516 47 45 4.3 7.0 0.00 0.00 0.00 81
20260505205516 47 0 2.6 5.2 0.00 0.00 0.00 82
20260505204536 47 68 3.5 7.8 0.00 0.00 0.00 83
20260505203536 47 45 4.3 7.0 0.00 0.00 0.00 83
20260505202516 48 68 4.3 10.4 0.00 0.00 0.00 83
20260505201516 48 45 4.3 8.7 0.00 0.00 0.00 83
20260505200516 48 68 1.7 5.2 0.00 0.00 0.00 84
20260505195516 48 68 6.1 7.8 0.00 0.00 0.00 82
20260505194515 49 45 5.2 7.8 0.00 0.00 0.00 83
20260505193515 49 68 2.6 5.2 0.00 0.00 0.00 84
20260505192516 49 45 3.5 5.2 0.00 0.00 0.00 84
20260505191516 49 45 2.6 4.3 0.00 0.00 0.00 84
20260505190536 50 45 2.6 4.3 0.00 0.00 0.00 82
20260505185515 50 68 4.3 9.6 0.00 0.00 0.00 82
20260505184516 50 68 5.2 9.6 0.00 0.00 0.00 82
20260505183518 50 68 4.3 6.1 0.00 0.00 0.00 82
20260505182516 50 68 5.2 9.6 0.00 0.00 0.00 82
20260505181518 51 90 5.2 10.4 0.00 0.00 0.00 82
20260505180515 51 68 7.8 10.4 0.00 0.00 0.00 82
20260505175536 51 68 6.1 8.7 0.00 0.00 0.00 81
20260505174516 52 45 5.2 10.4 0.00 0.00 0.00 80
20260505173518 52 68 6.1 10.4 0.00 0.00 0.00 78
20260505172518 53 68 6.1 26.1 0.00 0.00 0.00 75
20260505171538 54 45 2.6 6.1 0.00 0.00 0.00 66
20260505170538 54 45 1.7 2.6 0.00 0.00 0.00 66
20260505165518 55 68 3.5 7.8 0.00 0.00 0.00 65
20260505164518 55 68 1.7 4.3 0.00 0.00 0.00 64
20260505163538 55 68 0.9 1.7 0.00 0.00 0.00 63
20260505162518 55 293 0.9 2.6 0.00 0.00 0.00 63
20260505161517 55 23 0.9 2.6 0.00 0.00 0.00 64
20260505160517 55 315 2.6 4.3 0.00 0.00 0.00 63
20260505152518 56 68 1.7 5.2 0.00 0.00 0.00 62
20260505151517 56 68 3.5 7.0 0.00 0.00 0.00 62
20260505150517 56 23 3.5 5.2 0.00 0.00 0.00 62
20260505140537 57 68 1.7 3.5 0.00 0.00 0.00 61
20260505124537 56 315 1.7 2.6 0.00 0.00 0.00 63
20260505123537 55 45 0.9 3.5 0.00 0.00 0.00 60
20260505122517 55 68 1.7 2.6 0.00 0.00 0.00 62
20260505121517 55 45 1.7 3.5 0.00 0.00 0.00 61
20260505120517 55 45 1.7 4.3 0.00 0.00 0.00 62
20260505115517 55 338 1.7 3.5 0.00 0.00 0.00 61
20260505114517 56 68 1.7 4.3 0.00 0.00 0.00 63
20260505113517 55 338 2.6 3.5 0.00 0.00 0.00 63
20260505112517 55 338 1.7 4.3 0.00 0.00 0.00 62
20260505111537 56 338 2.6 5.2 0.00 0.00 0.00 62
20260505110517 55 68 2.6 3.5 0.00 0.00 0.00 62
20260505101517 55 68 5.2 7.8 0.00 0.00 0.00 65
20260505100517 55 0 1.7 3.5 0.00 0.00 0.00 66
20260505095537 55 315 1.7 3.5 0.00 0.00 0.00 65
20260505094517 54 45 1.7 3.5 0.00 0.00 0.00 67
20260505093517 54 45 0.9 3.5 0.00 0.00 0.00 66
20260505092517 54 45 1.7 4.3 0.00 0.00 0.00 66
20260505091517 54 0 2.6 4.3 0.00 0.00 0.00 67
20260505090517 54 45 3.5 7.0 0.00 0.00 0.00 69
20260505085517 54 45 2.6 4.3 0.00 0.00 0.00 70
20260505084517 54 293 1.7 5.2 0.00 0.00 0.00 71
20260505083537 53 338 1.7 3.5 0.00 0.00 0.00 71
20260505082517 54 23 1.7 5.2 0.00 0.00 0.00 70
20260505081517 53 23 0.9 4.3 0.00 0.00 0.00 73
20260505080516 53 0 2.6 4.3 0.00 0.00 0.00 73
20260505075537 52 338 0.9 2.6 0.00 0.00 0.00 75
20260505074517 52 0 1.7 2.6 0.00 0.00 0.00 75
20260505073517 52 45 0.9 2.6 0.00 0.00 0.00 76
20260505072517 52 45 2.6 5.2 0.00 0.00 0.00 76
20260505071518 51 315 1.7 2.6 0.00 0.00 0.00 78
20260505070516 51 0.0 1.7 0.00 0.00 0.00 80
20260505065537 50 315 1.7 3.5 0.00 0.00 0.00 80
20260505064536 50 23 1.7 3.5 0.00 0.00 0.00 81
20260505063516 49 0.0 0.9 0.00 0.00 0.00 85
20260505062517 48 45 0.9 1.7 0.00 0.00 0.00 86
20260505061537 47 0.0 0.9 0.00 0.00 0.00 88
20260505060537 46 338 0.9 0.9 0.00 0.00 0.00 87
20260505055516 47 0.0 0.9 0.00 0.00 0.00 88
20260505054537 46 0.0 0.9 0.00 0.00 0.00 89
20260505053516 45 0.0 1.7 0.00 0.00 0.00 89
20260505052516 45 293 0.9 1.7 0.00 0.00 0.00 90